Location: Carite
(10.3909°N, 67.0102°W)
Time: 01:30:26
(UTC+00:00)

Resurs 1-3 - Pass Details

Date: 08 September 2024
Orbit: 619 x 621 km, 97.7° (Epoch: 06 October)

Event Time Altitude Azimuth Distance (km) Brightness Sun altitude
Exits shadow 23:23:32 18° 117° (ESE) 1,508 5.0 -13.3°
Maximum altitude 23:25:33 26° 77° (ENE) 1,228 4.5 -13.8°
Drops below altitude 10° 23:29:08 10° 20° (NNE) 1,984 6.0 -14.6°
Sets 23:31:35 0° 8° (N) 2,889 7.0 -15.2°
